Terug naar catalogus

STARLINK-37930

ActiefCommunicatieSSO
NORAD 69668·PAYLOAD·🇺🇸 United States

Gelanceerd Jun 21, 2026 vanaf Vandenberg Space Force Base

Loading…

Volgende Passages (komende 24 uur)

TLE

VersSource: CelesTrak SupGP

Epoch: Sep 15, 2026, 04:36 UTC

1 69668C 26143V   26258.19215278 -.00042565  00000+0 -13213-2 0  2582
2 69668  97.2836 301.4582 0000800  92.3633 106.0648 15.33462540    18

Volg STARLINK-37930 in realtime met AllMySat

Download on the App Store